#timestamp,LO_Frequency,Hit,StdDev 
1649034015.4,286046996.5,N
1649034035.2,286046999.4,N
1649034055.0,286046998.7,N
1649034055.9,286046998.7,N
1649034075.8,286046998.9,N
1649034095.6,286046999.1,N
1649034115.5,286046998.9,N
1649034135.3,286046998.9,N
1649034155.1,286046996.8,N
1649034175.9,286047001.0,N
1649034195.7,286047001.6,N
1649034215.5,286047002.6,N
1649034235.4,286047001.4,N
1649034255.2,286047004.4,N
1649034275.1,286047001.0,N
1649034276.0,286047001.0,N
1649034295.8,286047002.1,N
1649034315.6,286047002.8,N
1649034335.5,286047002.2,N
1649034355.3,286047000.6,N
1649034375.1,286047001.2,N
1649034395.9,286047001.2,N
1649034415.7,286047002.3,N
1649034435.6,286047002.0,N
1649034455.4,286047005.8,N
1649034475.2,286047007.2,Y
1649034495.1,286047007.4,P
1649034496.0,286047007.4,N
1649034515.8,286047006.9,N
1649034535.7,286047004.0,N
1649034555.5,286047002.3,N
1649034575.3,286047000.8,N
1649034595.2,286047002.7,N
1649034615.9,286046999.8,N
1649034635.7,286047002.3,N
1649034655.6,286047004.1,N
1649034675.4,286047001.4,N
1649034695.3,286047001.3,N
1649034715.1,286047006.3,N
1649034716.0,286047006.3,N
1649034735.8,286047005.0,N
1649034755.7,286047008.8,Y
1649034775.5,286047006.0,P
1649034795.3,286047007.6,P
1649034815.2,286047003.4,N
1649034835.0,286047008.3,Y
1649034835.9,286047008.3,P
1649034855.8,286047000.0,N
1649034875.6,286046998.7,N
1649034895.4,286046998.8,N
1649034915.3,286046999.6,N
1649034935.1,286046995.9,N
1649034955.9,286046995.0,N
1649034975.7,286046995.4,N
1649034995.5,286046997.6,N
1649035015.4,286046998.3,N
1649035035.2,286047002.2,N
1649035055.0,286047000.3,N
1649035055.9,286047000.3,N
1649035075.8,286047002.5,N
1649035095.6,286047004.4,N
1649035115.5,286047002.6,N
1649035135.3,286046996.6,N
1649035155.1,286046998.7,N
1649035175.9,286047000.7,N
1649035195.7,286046997.3,N
1649035215.6,286046998.7,N
1649035235.4,286047002.3,N
1649035255.2,286047002.3,N
1649035275.1,286047001.8,N
1649035276.0,286047001.8,N
1649035295.8,286047002.8,N
1649035315.6,286046999.5,N
1649035335.5,286046998.5,N
1649035355.3,286046998.8,N
1649035375.2,286046997.6,N
1649035395.9,286046999.2,N
1649035415.7,286046999.4,N
1649035435.6,286046999.7,N
1649035455.4,286046998.5,N
1649035475.2,286046997.2,N
1649035495.1,286046996.6,N
1649035496.0,286046996.6,N
1649035515.8,286046996.8,N
1649035535.7,286047000.5,N
1649035555.5,286047000.5,N
1649035575.3,286046996.6,N
1649035595.2,286046998.1,N
1649035615.0,286046996.8,N
1649035615.9,286046996.8,N
1649035635.7,286046998.9,N
1649035655.6,286047001.2,N
1649035675.4,286046998.2,N
1649035695.3,286047001.0,N
1649035715.1,286047002.8,N
1649035716.0,286047002.8,N
1649035735.8,286046998.4,N
1649035755.7,286046999.1,N
1649035775.5,286047003.8,N
1649035795.3,286047001.6,N
1649035815.2,286047003.3,N
1649035835.0,286047001.8,N
1649035835.9,286047001.8,N
1649035855.8,286047002.5,N
1649035875.6,286046998.5,N
1649035895.4,286046995.5,N
1649035915.3,286046996.6,N
1649035935.1,286046998.2,N
1649035955.9,286046998.2,N
1649035975.7,286047001.0,N
1649035995.5,286047001.4,N
1649036015.4,286047000.9,N
1649036035.2,286047000.1,N
1649036055.0,286046999.5,N
1649036055.9,286046999.5,N
1649036075.8,286047000.4,N
1649036095.6,286047000.5,N
1649036115.5,286047000.6,N
1649036135.3,286046998.2,N
1649036155.1,286047001.2,N
1649036175.9,286047003.2,N
1649036195.7,286047003.9,N
1649036215.5,286047007.2,Y
1649036235.4,286047001.4,P
1649036255.2,286047001.8,P
1649036275.1,286047001.1,N
1649036276.0,286047001.1,N
1649036295.8,286046999.0,N
1649036315.6,286046996.5,Y
1649036335.5,286046997.5,P
1649036355.3,286046991.1,P
1649036375.1,286046994.4,N
1649036395.9,286046997.9,N
1649036415.7,286046992.0,N
1649036435.6,286046991.7,N
1649036455.4,286046991.9,N
1649036475.2,286046990.1,N
1649036495.1,286046991.0,N
1649036496.0,286046991.0,N
1649036515.8,286046993.4,N
1649036535.7,286046997.0,N
1649036555.5,286047001.2,N
1649036575.3,286047001.0,N
1649036595.2,286046999.3,N
1649036615.9,286047002.2,N
1649036635.7,286047000.9,N
1649036655.6,286046999.6,N
1649036675.4,286047001.0,N
1649036695.2,286047001.5,N
1649036715.1,286046998.7,N
1649036716.0,286046998.7,N
1649036735.8,286046999.5,N
1649036755.7,286046991.9,N
1649036775.5,286046995.2,N
1649036795.3,286046998.7,N
1649036815.2,286046998.6,N
1649036835.0,286046999.2,N
1649036835.9,286046999.2,N
1649036855.8,286046999.7,N
1649036875.6,286047001.5,N
1649036895.4,286046997.2,N
1649036915.3,286046997.1,N
1649036935.1,286046996.8,N
1649036936.0,286046996.8,N
1649036955.8,286046995.6,N
1649036975.7,286046994.0,N
1649036995.5,286046999.5,N
1649037015.4,286046998.4,N
1649037035.2,286046998.3,N
1649037055.0,286047001.5,N
1649037055.9,286047001.5,N
1649037075.8,286047003.1,N
1649037095.6,286047004.1,N
1649037115.4,286047005.4,N
1649037135.3,286047004.0,N
1649037155.1,286047002.0,N
1649037175.9,286047002.2,N
1649037195.7,286047001.2,N
1649037215.5,286046998.2,N
1649037235.4,286046997.4,N
1649037255.2,286047002.5,N
1649037275.0,286047003.9,N
1649037275.9,286047003.9,N
1649037295.8,286047003.0,N
1649037315.6,286047000.0,N
1649037335.5,286047004.0,N
1649037355.3,286047001.0,N
1649037375.1,286046996.3,N
1649037395.9,286046996.9,N
1649037415.7,286046999.2,N
1649037435.5,286046998.2,N
1649037455.4,286047001.0,N
1649037475.2,286047000.0,N
1649037495.1,286047000.5,N
1649037496.0,286047000.5,N
1649037515.8,286047003.8,N
1649037535.6,286047000.4,N
1649037555.5,286047002.0,N
1649037575.3,286047004.2,N
1649037595.1,286047001.7,N
